Flag Weather past 2 weeks in Aalborg, Denmark

Now
46 °F

Clear.


Feels Like: 42 °F
Forecast: 43 / 49 °F
Wind: 9 mph from West

Location: Aalborg Airport

Current Time: Nov 24, 2014 at 11:57:38 PM

Latest Report: Nov 24, 2014 at 11:20 PM


Visibility: 10 mi

Pressure: 30.09 "Hg

Humidity: 82%

Dew point: 41 °F

Location of AalborgLocation

Historic Weather in Aalborg — Graph

°F

Aalborg temperature yesterday

Maximum temperature yesterday: 48 °F (at 10:20 PM)
Minimum temperature yesterday: 43 °F (at 12:20 AM)
Average temperature yesterday: 46 °F

Past Weeks' High & Low Weather Summary

 TemperatureHumidityPressure
High52 °F (Nov 9, 11:20 PM)100% (Nov 10, 10:50 AM)30.42 "Hg (Nov 10, 10:50 AM)
Low32 °F (Nov 21, 3:50 AM)71% (Nov 18, 11:20 PM)29.68 "Hg (Nov 10, 3:50 PM)
Average46 °F90%30.03 "Hg
* Reported Nov 9 10:20 PM — Nov 24 10:20 PM, Aalborg, Weather by CustomWeather, © 2014

Note: Actual official high and low records may vary slightly from our data, if they occured in-between our weather recording intervals... More about our weather records

Advertising

Aalborg weather history for previous 24 hours

 ConditionsComfort  
Time TempWeatherWind HumidityBarometerVisibility
10:20 PM
Nov 24
46 °FPassing clouds.10 mph76%30.07 "HgN/A
9:50 PM46 °FClear.13 mph82%30.07 "Hg10 mi
9:20 PM48 °FClear.14 mph76%30.04 "Hg10 mi
8:50 PM48 °FClear.12 mph76%30.04 "Hg10 mi
8:20 PM48 °FClear.14 mph76%30.01 "Hg10 mi
7:50 PM46 °FClear.13 mph82%30.01 "Hg10 mi
7:20 PM46 °FClear.13 mph82%30.01 "Hg10 mi
6:50 PM45 °FPassing clouds.10 mph87%29.98 "HgN/A
6:20 PM45 °FPassing clouds.8 mph87%29.98 "HgN/A
5:50 PM45 °FPassing clouds.10 mph93%29.95 "HgN/A
5:20 PM45 °FPassing clouds.9 mph93%29.95 "HgN/A
4:50 PM45 °FPassing clouds.9 mph93%29.95 "HgN/A
4:20 PM46 °FPassing clouds.10 mph87%29.92 "HgN/A
3:50 PM46 °FScattered clouds.12 mph87%29.92 "HgN/A
3:20 PM46 °FScattered clouds.12 mph93%29.92 "HgN/A
2:50 PM48 °FScattered clouds.15 mph87%29.89 "HgN/A
2:20 PM46 °FRain showers. Partly sunny.21 mph87%29.92 "Hg4 mi
1:50 PM48 °FPartly sunny.8 mph94%29.92 "HgN/A
1:20 PM48 °FPartly sunny.10 mph87%29.92 "HgN/A
12:50 PM48 °FSprinkles. Scattered clouds.14 mph87%29.92 "HgN/A
12:20 PM46 °FScattered clouds.15 mph93%29.92 "HgN/A
11:50 AM48 °FSprinkles. Scattered clouds.13 mph87%29.92 "HgN/A
11:20 AM48 °FPassing clouds.14 mph82%29.92 "HgN/A
10:50 AM46 °FPassing clouds.14 mph87%29.92 "HgN/A
10:20 AM46 °FPassing clouds.13 mph87%29.89 "HgN/A
9:50 AM46 °FScattered clouds.13 mph87%29.89 "HgN/A
9:20 AM46 °FBroken clouds.10 mph93%29.86 "HgN/A
8:50 AM46 °FBroken clouds.12 mph93%29.86 "HgN/A
8:20 AM46 °FBroken clouds.12 mph93%29.83 "HgN/A
7:50 AM46 °FPartly cloudy.13 mph93%29.83 "HgN/A
7:20 AM46 °FLight rain. Partly cloudy.10 mph93%29.83 "HgN/A
6:50 AM46 °FLight rain. Passing clouds.8 mph93%29.83 "HgN/A
6:20 AM46 °FLight rain. Passing clouds.7 mph100%29.80 "HgN/A
5:50 AM46 °FLight rain. Passing clouds.7 mph100%29.80 "Hg5 mi
5:20 AM48 °FLight rain. Partly cloudy.8 mph94%29.80 "Hg3 mi
4:50 AM48 °FRain. Mostly cloudy.9 mph94%29.80 "Hg1 mi
4:20 AM48 °FLight rain. Passing clouds.9 mph94%29.80 "Hg1 mi
3:50 AM46 °FRain. Passing clouds.9 mph100%29.80 "Hg1 mi
3:20 AM48 °FRain. Mostly cloudy.10 mph94%29.80 "Hg2 mi
2:50 AM48 °FRain. Mostly cloudy.12 mph94%29.80 "Hg1 mi
2:20 AM48 °FRain. Mostly cloudy.13 mph94%29.80 "Hg1 mi
1:50 AM48 °FRain. Partly cloudy.13 mph94%29.80 "Hg1 mi
1:20 AM48 °FRain. Partly cloudy.14 mph94%29.80 "Hg1 mi
12:50 AM48 °FRain. Partly cloudy.13 mph94%29.83 "Hg1 mi
12:20 AM48 °FRain. Partly cloudy.12 mph94%29.83 "Hg2 mi
11:50 PM
Nov 23
48 °FLight rain. Mostly cloudy.14 mph87%29.86 "Hg2 mi
11:20 PM48 °FFog.18 mph87%29.86 "Hg3 mi
Weather by CustomWeather, © 2014

See weather overviewHow to use our weather pages